Location: Berg
(47.2344°N, 9.5296°E)
Time: 22:46:48
(UTC+00:00)

BEESAT 2 - Pass Details

Date: 28 November 2021
Orbit: 498 x 513 km, 64.9° (Epoch: 24 January)

Event Time Altitude Azimuth Distance (km) Brightness Sun altitude
Exits shadow 06:05:44 - 333° (NNW) 2,385 ? -6.6°
Reaches altitude 10° 06:07:34 10° 345° (NNW) 1,754 ? -6.3°
Maximum altitude 06:10:44 23° 39° (NE) 1,143 ? -5.8°
Drops below altitude 10° 06:13:53 10° 92° (E) 1,744 ? -5.3°
Sets 06:16:24 0° 108° (ESE) 2,625 ? -4.9°
